Theta_e
325 323 322 317 313 318 311 313 307 309 313 317 320 320 320 320 322 322 332 337 338 341 348 347 350 354 355 358 358 355 354 351
323 324 322 317 322 312 311 304 301 305 308 309 315 316 320 320 320 327 329 337 339 340 344 350 352 351 354 354 354 353 352 352
319 317 316 317 313 312 313 311 304 301 306 317 317 318 318 319 323 328 330 335 338 339 345 351 352 353 356 355 356 357 357 353
312 318 320 317 313 312 305 306 308 306 305 319 320 319 320 320 329 331 334 340 342 344 346 349 350 351 354 359 355 356 355 350
308 313 317 313 314 314 313 311 307 303 306 320 321 320 322 325 327 336 342 342 342 344 344 345 347 346 346 350 354 354 352 350
303 307 312 310 312 313 311 306 306 307 310 315 317 318 322 324 328 333 341 342 339 340 345 345 340 340 339 342 343 352 348 346
312 313 313 312 312 313 311 311 307 310 310 314 318 321 324 327 329 330 332 339 339 340 342 342 341 337 336 335 336 341 341 342
311 315 315 313 314 314 313 313 312 312 311 318 322 326 326 328 327 328 330 337 340 341 342 341 339 338 335 332 332 334 335 332
309 313 312 307 312 313 314 315 313 309 314 319 322 323 325 325 326 328 332 339 341 340 341 343 341 340 336 334 332 332 332 331
308 311 302 313 319 317 314 315 316 316 316 318 323 324 325 332 333 332 332 336 340 342 342 342 343 341 340 334 333 332 331 331
307 306 310 312 316 316 315 315 320 318 321 323 325 325 327 332 333 331 331 333 338 344 343 343 343 343 339 337 335 334 332 331
311 305 301 313 318 323 320 309 322 323 322 322 323 315 319 330 329 330 333 336 338 345 343 343 345 344 340 338 337 335 334 335
310 307 310 318 322 323 309 313 324 324 324 322 319 324 327 328 329 331 336 336 345 344 341 344 343 342 338 340 337 338 339 338
313 310 307 324 321 315 323 325 323 324 323 324 325 325 326 327 332 332 333 335 342 342 342 345 345 343 340 338 341 340 339 337
317 314 327 325 324 326 326 325 324 325 324 325 324 324 325 329 332 332 333 338 342 342 341 343 346 343 339 342 343 343 340 339
321 322 322 324 327 328 327 325 326 326 325 326 325 326 326 332 332 335 337 338 341 342 341 341 342 342 343 343 343 340 338 337
320 323 324 325 325 324 324 325 324 324 326 326 328 327 329 332 338 335 340 341 338 339 341 341 345 342 342 343 342 337 336 334
312 322 321 321 323 324 322 322 324 324 325 327 327 327 329 332 336 335 336 340 343 345 343 344 345 344 341 341 341 337 333 331
319 322 322 322 324 326 324 324 325 327 327 327 330 330 329 336 335 333 337 342 343 346 339 347 344 343 345 343 340 338 334 331
Wind_Speed
6 4 3 6 10 16 11 14 6 6 12 19 10 12 13 9 11 12 7 7 9 16 9 14 4 10 14 13 10 11 12 11
11 4 13 8 8 9 6 6 7 10 8 10 10 10 10 8 9 10 9 7 2 5 9 7 3 5 12 12 11 10 10 10
4 10 8 9 6 11 11 6 6 10 7 12 9 6 6 6 9 10 8 10 6 7 6 7 8 5 5 10 13 10 11 11
17 17 6 8 8 10 8 11 11 12 10 6 8 3 6 8 11 11 6 8 7 5 6 6 5 6 9 3 9 13 12 12
11 13 9 3 5 10 10 11 12 11 10 7 11 13 10 11 9 9 10 6 4 4 5 5 3 4 8 9 7 11 15 16
12 18 17 14 14 14 14 11 15 15 16 15 17 16 8 7 9 9 7 3 3 5 4 3 4 4 4 8 8 3 10 13
16 17 18 20 19 18 18 15 16 17 18 15 13 14 14 13 10 7 3 6 3 4 7 6 2 2 1 4 6 4 6 10
17 19 19 20 20 18 19 20 17 17 15 12 14 13 12 10 11 9 4 2 2 4 9 5 3 2 3 1 3 4 3 6
16 19 20 17 19 19 13 8 11 12 13 14 12 12 10 12 12 8 5 6 4 7 5 4 3 5 5 5 3 3 4 6
14 14 19 19 14 9 8 10 7 7 11 9 9 9 12 9 11 9 10 5 7 6 5 4 5 7 9 8 5 4 4 4
13 14 20 22 13 6 7 9 12 8 8 7 10 10 5 8 5 7 8 7 9 8 6 6 5 9 8 8 8 6 6 6
11 16 20 16 18 7 3 8 10 7 5 7 10 8 6 11 12 11 13 7 7 9 7 7 4 8 7 9 8 9 9 8
11 16 16 15 9 6 7 3 5 6 7 10 8 7 9 12 15 7 8 8 1 10 7 8 7 8 7 6 7 6 6 9
11 16 19 12 2 4 5 1 4 8 10 10 10 8 10 11 8 7 6 10 7 9 8 8 9 8 7 7 8 8 8 8
13 12 4 4 3 5 6 6 7 7 10 10 10 9 11 10 11 4 7 7 7 5 6 8 9 7 9 8 7 10 10 9
12 13 16 13 13 13 11 8 9 10 11 8 10 10 8 8 11 5 7 8 5 7 7 8 9 8 8 9 9 9 8 8
14 11 13 12 11 8 8 8 11 12 12 12 11 6 7 7 7 2 6 7 7 14 10 9 9 9 10 11 11 9 9 8
11 11 11 10 13 14 13 10 12 13 14 12 13 8 9 4 3 4 5 7 9 2 8 8 9 10 9 11 11 10 9 9
11 7 10 11 11 10 11 11 14 12 11 13 12 7 8 5 5 4 5 8 11 4 10 9 10 10 8 11 12 11 10 10
Wind_Direction
202 314 293 339 303 357 308 291 292 19 35 84 96 129 69 35 16 348 87 87 354 336 52 135 191 144 126 131 143 149 159 147
123 209 243 230 335 311 337 309 329 353 313 77 62 40 23 358 353 58 15 106 68 322 323 341 11 168 133 153 168 176 175 175
163 251 256 179 261 318 296 272 295 284 330 105 89 43 357 358 41 39 23 26 31 351 351 4 343 39 17 175 173 175 172 166
313 315 233 275 312 297 303 308 310 315 304 31 88 146 28 6 69 44 52 41 24 354 324 295 254 346 333 297 168 162 174 161
316 283 228 207 263 292 303 307 288 291 287 296 351 357 31 63 42 63 77 73 2 300 307 347 22 354 323 314 303 176 173 170
285 299 314 310 306 298 299 294 295 293 307 331 338 333 21 11 46 56 106 108 329 281 262 93 76 51 345 311 345 287 193 174
280 291 302 305 301 297 292 281 277 293 297 311 353 37 35 28 14 2 351 182 258 255 258 269 292 119 54 316 318 309 121 182
273 277 281 287 292 280 283 279 283 296 299 9 34 33 19 358 331 329 340 94 139 232 248 275 205 200 140 147 337 23 75 103
291 304 302 287 281 277 299 334 344 328 354 9 15 6 0 344 317 333 20 119 169 244 250 191 191 154 169 148 142 114 101 143
274 275 270 278 285 308 279 290 282 337 333 342 9 1 351 25 16 1 354 340 199 206 203 236 175 173 129 146 160 163 161 123
274 275 280 268 277 18 11 320 340 22 10 359 8 346 34 50 5 324 304 279 304 165 172 199 179 130 154 158 151 143 140 138
273 280 284 302 320 100 15 286 52 47 4 346 337 311 310 351 321 331 305 325 301 139 166 173 169 154 159 162 171 166 173 172
266 268 276 285 83 70 255 41 24 351 349 331 320 321 333 321 302 324 335 324 350 147 171 168 156 169 199 173 173 164 149 167
249 254 266 22 335 311 47 278 302 338 327 316 308 323 311 305 319 334 333 307 147 141 166 167 170 178 182 191 166 175 164 165
274 295 332 304 240 278 297 330 319 308 298 293 293 301 304 326 323 266 282 285 228 166 185 177 169 168 192 195 193 173 170 179
275 276 285 288 321 316 319 332 321 317 307 292 300 296 320 318 303 311 306 272 207 173 195 192 174 189 199 194 174 159 171 170
298 287 283 275 284 350 336 323 304 296 281 281 274 292 308 303 302 352 311 291 145 213 178 187 169 193 207 182 178 173 181 182
289 328 316 328 336 327 315 308 308 304 301 292 301 292 299 288 252 196 260 270 287 224 153 178 178 201 214 193 169 184 189 195
290 322 307 301 288 303 291 297 275 280 279 277 274 291 299 244 222 195 249 234 249 241 176 178 185 199 211 174 171 189 208 203